[[{"header":{"parameterUnit":"m.s-1","parameterCategory":1,"la1":30.2991,"la2":30.254,"lo1":-89.0895,"lo2":-89.0444,"dy":0.0017,"dx":0.0017,"nx":28,"ny":28,"refTime":"2023-11-17T09:00:00:Z","depth":0,"parameterNumber":2,"parameterNumberName":"U-component_of_WINDS"},"data":[0,0,0,0,0,0,0,0,0,0,0,0,0,0,0,0,0,0,0,0,0,0,0,0,0,0,0,0,0,0,0,0,0,0,0,0,0,0,0,0,0,0,0,0,0,0,0,0,0,0,0,0,0,0,0,0,0,0,1.6614,1.6615,0,1.6671,1.6671,1.6672,1.6647,1.6645,1.6644,1.6643,1.6702,1.6704,1.6707,0,0,0,0,0,0,0,0,0,0,0,0,0,1.6487,1.649,1.6614,1.6615,1.6616,1.6671,1.6671,1.6672,1.6647,1.6645,1.6644,1.6642,1.6701,1.6704,1.6708,0,0,0,0,0,0,0,0,0,0,0,0,0,1.6543,1.649,1.6614,1.661,1.661,1.667,1.6671,1.6672,1.6647,1.6645,1.6643,1.6641,1.67,1.6704,1.6708,1.6777,0,0,1.6721,1.6723,0,0,0,0,0,0,0,0,1.654,1.6548,1.661,1.661,1.661,1.6649,1.6648,1.6707,1.6648,1.6633,1.6643,1.664,1.6686,1.6691,1.6707,1.6779,1.6782,1.6722,1.6724,1.6726,1.6727,0,0,0,0,0,0,0,1.6536,1.6545,1.6637,1.6611,1.6611,1.6606,1.6611,1.6659,1.6671,1.6634,1.6633,1.664,1.6686,1.6702,1.6708,1.6783,1.6721,1.6725,1.6728,1.673,1.6917,1.6919,0,0,0,0,0,0,1.6532,1.6542,1.6635,1.6638,1.6569,1.661,1.6616,1.6639,1.667,1.6673,1.6641,1.6638,1.6696,1.6703,1.671,1.6794,1.6726,1.673,1.6733,1.6915,1.6918,1.692,0,0,0,0,0,0,1.6529,1.654,1.6633,1.659,1.6601,1.6614,1.664,1.6641,1.6658,1.6675,1.6677,1.6656,1.6695,1.6704,1.6761,1.6795,1.6732,1.6736,1.6912,1.6916,1.6919,1.6961,0,0,0,0,0,0,1.6526,1.654,1.6565,1.659,1.6603,1.6682,1.6642,1.6644,1.6665,1.6662,1.669,1.6692,1.6694,1.6754,1.6765,1.68,1.6739,1.6909,1.6913,1.6918,1.6957,1.6966,1.6973,0,0,0,0,0,1.6521,1.6574,1.6566,1.6578,1.6635,1.6684,1.6691,1.6691,1.6668,1.6694,1.6706,1.6692,1.679,1.676,1.6772,1.6809,1.6907,1.6912,1.6917,1.6953,1.6964,1.6973,0,0,0,0,0,0,1.6553,1.6578,1.6569,1.6632,1.6656,1.6679,1.6712,1.6703,1.6734,1.6729,1.6729,1.6735,1.6795,1.6807,1.6774,1.6878,1.6845,1.6853,1.6868,1.6878,1.6887,1.6883,1.6743,0,0,0,0,0,1.6567,1.6604,1.6623,1.6677,1.669,1.6699,1.672,1.6718,1.6743,1.6753,1.6769,1.6794,1.6831,1.6855,1.689,1.6958,1.6965,1.699,1.6998,1.7005,1.7012,1.7051,1.7063,1.6938,1.6938,1.6938,0,0,1.6597,1.6615,1.6638,1.6684,1.6702,1.6741,1.6708,1.675,1.6779,1.676,1.6815,1.6828,1.6856,1.6919,1.6948,1.6932,1.7048,1.7012,1.7017,1.7021,1.7058,1.707,1.708,1.6941,1.6941,1.694,0,0,1.6671,1.6688,1.6735,1.6755,1.6783,1.679,1.6801,1.6827,1.6834,1.6889,1.6876,1.6911,1.6974,1.6996,1.7015,1.7099,1.7088,1.7111,1.7155,1.7193,1.7203,1.7212,1.7244,1.7255,1.7118,1.7118,1.7118,0,1.6705,1.6762,1.6761,1.6805,1.6826,1.6811,1.686,1.6879,1.6917,1.6933,1.6914,1.6994,1.7012,1.7081,1.7102,1.7117,1.7132,1.7108,1.7201,1.721,1.7218,1.7249,1.7261,1.712,1.712,1.712,1.712,0,1.6803,1.6843,1.6878,1.6916,1.6942,1.6988,1.6995,1.7021,1.7017,1.7026,1.7083,1.7104,1.7144,1.716,1.7157,1.723,1.7219,1.7201,1.7167,1.7233,1.7262,1.7273,1.7124,1.7123,1.7122,1.7122,0,0,1.6898,1.6936,1.6949,1.6967,1.6998,1.703,1.7076,1.7115,1.7138,1.7165,1.7205,1.7259,1.7243,1.7265,1.7264,1.7298,1.7366,1.7276,1.7276,1.7293,1.745,1.7464,1.7477,1.7358,1.736,1.7362,1.7448,0,1.6976,1.7057,1.7058,1.7132,1.7171,1.7158,1.7198,1.7222,1.7232,1.7267,1.7278,1.7317,1.7292,1.7305,1.7338,1.7351,1.7398,1.7344,1.7397,1.7398,1.7391,1.7492,1.7507,1.7587,1.7459,1.7461,1.7462,0,1.7077,1.7109,1.7187,1.7215,1.7231,1.7267,1.7304,1.7337,1.7365,1.737,1.7395,1.7389,1.7438,1.7403,1.7471,1.7434,1.7456,1.7466,1.7469,1.7475,1.7435,1.7502,1.7612,1.7625,1.7479,1.7478,1.7477,0,1.7141,1.7203,1.7258,1.7274,1.7307,1.7333,1.7348,1.7374,1.7398,1.743,1.7446,1.7483,1.7504,1.7534,1.7539,1.7513,1.7608,1.7573,1.7615,1.7615,1.7636,1.7635,1.7753,1.7648,1.7648,1.7648,1.7647,0,1.7228,1.7277,1.7288,1.7322,1.7377,1.7379,1.7433,1.7446,1.747,1.7507,1.7498,1.7533,1.7538,1.7575,1.758,1.7636,1.7645,1.7652,1.7653,1.7653,1.7653,1.7668,1.7663,1.7651,1.765,1.765,1.7649,0,1.7309,1.7317,1.7377,1.7404,1.7412,1.7452,1.7475,1.7509,1.7518,1.7566,1.7577,1.7592,1.7635,1.7644,1.7694,1.7698,1.7766,1.776,1.7757,1.7756,1.7799,1.7795,1.7932,1.795,1.7832,1.7833,1.7834,0,1.7364,1.7402,1.7433,1.7458,1.7474,1.7514,1.7538,1.7542,1.7568,1.7604,1.7634,1.7676,1.771,1.7781,1.7796,1.7836,1.7832,1.7877,1.7838,1.7838,1.7835,1.7833,1.7838,1.7885,1.7886,1.7887,1.7888,0,1.7463,1.7466,1.7502,1.754,1.757,1.76,1.7628,1.7649,1.7656,1.7687,1.7731,1.7758,1.7811,1.7854,1.7893,1.791,1.7901,1.7901,1.7913,1.7914,1.7911,1.7915,1.7779,1.7897,1.7897,1.7896,1.7895,1.7895,1.7534,1.7567,1.7595,1.7636,1.7658,1.7686,1.7719,1.7733,1.777,1.7813,1.7813,1.7862,1.7891,1.7944,1.7963,1.8002,1.7988,1.8005,1.801,1.8014,1.8019,1.7904,1.8009,1.8009,1.8009,1.8009,1.8008,0,1.7633,1.7651,1.7688,1.7729,1.7762,1.775,1.7782,1.781,1.7854,1.7881,1.7915,1.7968,1.801,1.8029,1.8071,1.8099,1.8096,1.811,1.8109,1.8113,1.8029,1.8015,1.8112,1.8112,1.8112,1.8112,1.8112,1.8112,1.7689,1.7746,1.7752,1.7821,1.7838,1.7886,1.7906,1.7932,1.7954,1.8013,1.8048,1.806,1.8085,1.8129,1.8168,1.8172,1.8189,1.8205,1.8208,1.8129,1.8119,1.8109,1.8096,1.8208,1.8208,1.8289,1.829,1.8291]},{"header":{"parameterUnit":"m.s-1","parameterCategory":1,"la1":30.2991,"la2":30.254,"lo1":-89.0895,"lo2":-89.0444,"dy":0.0017,"dx":0.0017,"nx":28,"ny":28,"refTime":"2023-11-17T09:00:00:Z","depth":0,"parameterNumber":3,"parameterNumberName":"V-component_of_WINDS"},"data":[0,0,0,0,0,0,0,0,0,0,0,0,0,0,0,0,0,0,0,0,0,0,0,0,0,0,0,0,0,0,0,0,0,0,0,0,0,0,0,0,0,0,0,0,0,0,0,0,0,0,0,0,0,0,0,0,0,0,-2.0951,-2.0951,0,-2.0999,-2.1,-2.1,-2.1016,-2.1016,-2.1016,-2.1016,-2.1066,-2.1068,-2.1069,0,0,0,0,0,0,0,0,0,0,0,0,0,-2.0874,-2.0876,-2.0951,-2.0951,-2.0952,-2.0999,-2.1,-2.1,-2.1016,-2.1016,-2.1016,-2.1016,-2.1066,-2.1068,-2.1069,0,0,0,0,0,0,0,0,0,0,0,0,0,-2.0914,-2.0876,-2.0951,-2.0966,-2.0967,-2.0999,-2.1,-2.1,-2.1016,-2.1016,-2.1016,-2.1015,-2.1065,-2.1067,-2.107,-2.109,0,0,-2.1077,-2.1078,0,0,0,0,0,0,0,0,-2.0911,-2.0916,-2.0963,-2.0965,-2.0967,-2.1001,-2.0991,-2.1031,-2.1016,-2.0998,-2.1016,-2.1015,-2.1045,-2.1049,-2.1059,-2.1093,-2.1095,-2.1077,-2.1078,-2.1079,-2.108,0,0,0,0,0,0,0,-2.0909,-2.0914,-2.097,-2.0963,-2.0966,-2.0971,-2.0976,-2.0999,-2.1023,-2.0999,-2.1001,-2.1006,-2.1046,-2.1056,-2.106,-2.1095,-2.1077,-2.1079,-2.108,-2.1081,-2.1149,-2.115,0,0,0,0,0,0,-2.0903,-2.0912,-2.0968,-2.0971,-2.0938,-2.0972,-2.0978,-2.0991,-2.1022,-2.1027,-2.1006,-2.1007,-2.1053,-2.1057,-2.1062,-2.1088,-2.1079,-2.1082,-2.1083,-2.1149,-2.115,-2.115,0,0,0,0,0,0,-2.0902,-2.0908,-2.0966,-2.0942,-2.095,-2.0974,-2.0988,-2.0992,-2.1002,-2.1028,-2.1032,-2.1012,-2.1053,-2.1059,-2.1083,-2.109,-2.1083,-2.1085,-2.1149,-2.1149,-2.115,-2.1141,0,0,0,0,0,0,-2.0899,-2.0907,-2.0915,-2.0942,-2.0951,-2.0986,-2.0988,-2.0993,-2.1006,-2.1007,-2.1035,-2.1039,-2.1053,-2.108,-2.1085,-2.1093,-2.1086,-2.1148,-2.1149,-2.115,-2.1141,-2.1141,-2.1142,0,0,0,0,0,-2.0896,-2.0911,-2.0915,-2.0922,-2.0961,-2.0987,-2.0992,-2.1007,-2.1006,-2.1014,-2.1031,-2.1038,-2.1089,-2.1082,-2.1089,-2.1097,-2.1148,-2.1149,-2.115,-2.114,-2.1141,-2.1142,0,0,0,0,0,0,-2.0884,-2.0914,-2.092,-2.0943,-2.0962,-2.0989,-2.1,-2.1007,-2.1027,-2.1027,-2.1046,-2.1052,-2.1075,-2.1089,-2.1081,-2.1119,-2.1119,-2.1121,-2.1109,-2.111,-2.1111,-2.1107,-2.1088,0,0,0,0,0,-2.0884,-2.0901,-2.0927,-2.0945,-2.0955,-2.0976,-2.0987,-2.0998,-2.1018,-2.1027,-2.1045,-2.1065,-2.1086,-2.1099,-2.1119,-2.1143,-2.115,-2.1152,-2.1153,-2.1153,-2.1155,-2.1169,-2.1171,-2.1153,-2.1153,-2.1153,0,0,-2.0884,-2.0902,-2.0913,-2.0943,-2.0959,-2.0978,-2.0982,-2.1002,-2.1016,-2.103,-2.1054,-2.1068,-2.1092,-2.1116,-2.1128,-2.1128,-2.1161,-2.1154,-2.1154,-2.1156,-2.117,-2.1172,-2.1173,-2.1154,-2.1154,-2.1154,0,0,-2.0893,-2.0909,-2.0926,-2.0942,-2.0966,-2.098,-2.0984,-2.101,-2.102,-2.1045,-2.1056,-2.1073,-2.1108,-2.1125,-2.1138,-2.1154,-2.1162,-2.1161,-2.1163,-2.1177,-2.1178,-2.1179,-2.1186,-2.1187,-2.1162,-2.1162,-2.1162,0,-2.089,-2.0918,-2.0934,-2.0952,-2.0966,-2.0979,-2.0997,-2.1012,-2.1042,-2.1051,-2.1051,-2.1095,-2.1112,-2.1141,-2.1145,-2.1155,-2.1161,-2.1157,-2.1176,-2.1178,-2.1179,-2.1186,-2.1188,-2.1162,-2.1162,-2.1162,-2.1162,0,-2.0913,-2.0932,-2.0943,-2.0971,-2.0986,-2.1004,-2.1023,-2.1037,-2.1046,-2.106,-2.1086,-2.1107,-2.1132,-2.1139,-2.1149,-2.117,-2.1169,-2.1173,-2.1172,-2.118,-2.1187,-2.1189,-2.1162,-2.1162,-2.1162,-2.1162,0,0,-2.0915,-2.0952,-2.0956,-2.0969,-2.0997,-2.1012,-2.1031,-2.1056,-2.1067,-2.1087,-2.1104,-2.1134,-2.1137,-2.1152,-2.1164,-2.1176,-2.1188,-2.1178,-2.1179,-2.1179,-2.1213,-2.121,-2.1213,-2.1193,-2.1194,-2.1194,-2.1211,0,-2.0928,-2.0962,-2.0977,-2.1005,-2.1023,-2.1037,-2.1054,-2.1073,-2.1087,-2.1105,-2.1121,-2.1142,-2.1145,-2.1154,-2.1166,-2.1184,-2.1195,-2.1183,-2.121,-2.121,-2.1203,-2.1216,-2.1213,-2.1228,-2.1214,-2.1214,-2.1214,0,-2.0947,-2.0967,-2.0996,-2.1023,-2.1031,-2.1046,-2.107,-2.1087,-2.1109,-2.1119,-2.1136,-2.1147,-2.1168,-2.1167,-2.1197,-2.1189,-2.1201,-2.1211,-2.1212,-2.1215,-2.1213,-2.1219,-2.1233,-2.1235,-2.1218,-2.1218,-2.1218,0,-2.0946,-2.098,-2.1002,-2.1013,-2.1044,-2.1055,-2.1068,-2.109,-2.1104,-2.1125,-2.1135,-2.1158,-2.1171,-2.1189,-2.1207,-2.1204,-2.1236,-2.1236,-2.1245,-2.1244,-2.1251,-2.125,-2.1266,-2.1258,-2.1258,-2.1258,-2.1258,0,-2.0959,-2.0976,-2.1002,-2.1016,-2.1036,-2.1054,-2.1074,-2.1089,-2.1108,-2.1126,-2.1139,-2.1155,-2.1177,-2.1196,-2.121,-2.1234,-2.124,-2.1248,-2.1252,-2.1247,-2.1246,-2.1255,-2.1254,-2.1259,-2.1259,-2.1259,-2.1259,0,-2.096,-2.0978,-2.1003,-2.1031,-2.1038,-2.1052,-2.1076,-2.109,-2.1105,-2.1127,-2.1133,-2.1157,-2.118,-2.1199,-2.123,-2.124,-2.1264,-2.1268,-2.1256,-2.1258,-2.1266,-2.1265,-2.1289,-2.1293,-2.1282,-2.1282,-2.1282,0,-2.0967,-2.0981,-2.101,-2.1022,-2.1035,-2.1055,-2.1069,-2.1088,-2.1102,-2.113,-2.1141,-2.1165,-2.1185,-2.1222,-2.1242,-2.1266,-2.1271,-2.1278,-2.1274,-2.1269,-2.1271,-2.127,-2.1272,-2.1278,-2.1278,-2.1278,-2.1278,0,-2.0978,-2.0986,-2.1006,-2.1028,-2.1045,-2.1064,-2.1083,-2.1093,-2.1115,-2.1131,-2.1155,-2.117,-2.1202,-2.1226,-2.1252,-2.1267,-2.1276,-2.1279,-2.1282,-2.1277,-2.127,-2.1274,-2.1257,-2.1278,-2.1278,-2.1278,-2.1278,-2.1278,-2.0982,-2.0995,-2.1018,-2.1039,-2.1056,-2.1074,-2.1089,-2.1105,-2.1125,-2.1152,-2.1162,-2.1187,-2.121,-2.1246,-2.1261,-2.1281,-2.1282,-2.1287,-2.1288,-2.1289,-2.1289,-2.1267,-2.1286,-2.1286,-2.1286,-2.1286,-2.1286,0,-2.0994,-2.1009,-2.1028,-2.1055,-2.1072,-2.1079,-2.1101,-2.1116,-2.1137,-2.1157,-2.1177,-2.1205,-2.1228,-2.1251,-2.1276,-2.1288,-2.1293,-2.1293,-2.1293,-2.1296,-2.1286,-2.128,-2.1289,-2.1289,-2.1289,-2.1289,-2.1289,-2.1289,-2.1001,-2.1024,-2.1035,-2.1066,-2.1082,-2.1105,-2.1117,-2.1134,-2.1151,-2.1181,-2.1201,-2.1215,-2.1237,-2.1263,-2.1286,-2.1292,-2.1301,-2.13,-2.1308,-2.1297,-2.1297,-2.1296,-2.1291,-2.1302,-2.1302,-2.1316,-2.1316,-2.1317]}]]